TimePST,TemperatureF,Dew PointF,Humidity,Sea Level PressureIn,VisibilityMPH,Wind Direction,Wind SpeedMPH,Gust SpeedMPH,PrecipitationIn,Events,Conditions,WindDirDegrees,DateUTC
12:38 AM,41.0,41.0,100,30.24,1.8,South,2.3,-,N/A,,Overcast,170,2014-01-02 08:38:00
12:43 AM,41.0,41.0,100,30.24,1.0,South,2.3,-,N/A,,Mist,180,2014-01-02 08:43:00
12:48 AM,41.0,41.0,100,30.25,0.8,SW,2.3,-,N/A,,Mist,230,2014-01-02 08:48:00
12:58 AM,41.0,41.0,100,30.24,0.5,South,2.3,-,N/A,Fog,Fog,170,2014-01-02 08:58:00
1:03 AM,41.0,41.0,100,30.24,0.5,SSE,2.3,-,N/A,Fog,Fog,160,2014-01-02 09:03:00
1:08 AM,41.0,41.0,100,30.24,0.5,SSE,2.3,-,N/A,Fog,Fog,160,2014-01-02 09:08:00
1:18 AM,41.0,41.0,100,30.23,0.5,SSE,3.5,-,N/A,Fog,Fog,160,2014-01-02 09:18:00
1:28 AM,41.0,41.0,100,30.23,0.5,SSE,3.5,-,N/A,Fog,Fog,150,2014-01-02 09:28:00
1:33 AM,41.0,41.0,100,30.23,0.5,SSE,3.5,-,N/A,Fog,Fog,150,2014-01-02 09:33:00
1:38 AM,41.0,41.0,100,30.24,1.0,SSW,2.3,-,N/A,,Scattered Clouds,210,2014-01-02 09:38:00
1:39 AM,41.0,41.0,100,30.24,1.0,SW,2.3,-,N/A,,Scattered Clouds,230,2014-01-02 09:39:00
1:42 AM,41.0,41.0,100,30.24,1.8,South,1.2,-,N/A,Rain,Light Rain,180,2014-01-02 09:42:00
1:47 AM,41.0,41.0,100,30.24,2.5,SSE,2.3,-,N/A,Rain,Light Rain,150,2014-01-02 09:47:00
1:52 AM,41.0,41.0,100,30.24,3.0,SSE,2.3,-,N/A,Rain,Light Rain,160,2014-01-02 09:52:00
1:58 AM,40.6,40.5,99,30.26,3.0,SSE,2.3,-,0.00,Rain,Light Rain,160,2014-01-02 09:58:00
2:08 AM,41.0,41.0,100,30.25,3.0,SSW,4.6,-,N/A,Rain,Light Rain,200,2014-01-02 10:08:00
2:23 AM,41.0,41.0,100,30.25,5.0,SSE,2.3,-,N/A,Rain,Light Rain,160,2014-01-02 10:23:00
2:25 AM,41.0,41.0,100,30.24,5.0,SSE,3.5,-,N/A,,Overcast,150,2014-01-02 10:25:00
2:45 AM,41.0,41.0,100,30.23,6.0,ESE,4.6,-,N/A,,Overcast,120,2014-01-02 10:45:00
2:58 AM,40.6,40.6,100,30.26,8.0,WSW,2.3,-,0.01,,Overcast,240,2014-01-02 10:58:00
3:05 AM,41.0,41.0,100,30.24,9.0,SSW,3.5,-,N/A,Rain,Light Rain,200,2014-01-02 11:05:00
3:16 AM,41.0,41.0,100,30.24,8.0,South,2.3,-,N/A,,Overcast,190,2014-01-02 11:16:00
3:58 AM,40.6,40.6,100,30.24,8.0,Calm,Calm,-,0.00,,Overcast,0,2014-01-02 11:58:00
4:58 AM,40.6,40.6,100,30.22,9.0,South,2.3,-,N/A,,Overcast,170,2014-01-02 12:58:00
5:06 AM,41.0,41.0,100,30.20,7.0,SSE,3.5,-,N/A,Rain,Light Rain,150,2014-01-02 13:06:00
5:19 AM,41.0,41.0,100,30.18,7.0,SE,4.6,-,N/A,,Mostly Cloudy,130,2014-01-02 13:19:00
5:43 AM,41.0,41.0,100,30.19,9.0,Calm,Calm,-,N/A,Rain,Light Rain,0,2014-01-02 13:43:00
5:58 AM,40.8,40.8,100,30.20,9.0,East,4.6,-,0.00,Rain,Light Rain,90,2014-01-02 13:58:00
5:59 AM,41.0,41.0,100,30.18,10.0,East,4.6,-,N/A,,Overcast,80,2014-01-02 13:59:00
6:58 AM,40.6,40.6,100,30.19,7.0,West,1.2,-,0.00,,Overcast,260,2014-01-02 14:58:00
7:58 AM,39.9,39.9,100,30.17,3.0,Calm,Calm,-,N/A,,Overcast,0,2014-01-02 15:58:00
8:58 AM,40.6,40.6,100,30.16,9.0,SSW,2.3,-,N/A,,Overcast,200,2014-01-02 16:58:00
9:58 AM,42.1,42.1,100,30.16,10.0,SSW,3.5,-,N/A,,Overcast,200,2014-01-02 17:58:00
10:58 AM,43.7,43.7,100,30.13,10.0,South,3.5,-,N/A,,Mostly Cloudy,180,2014-01-02 18:58:00
11:58 AM,45.9,45.5,99,30.11,10.0,Variable,3.5,-,N/A,,Overcast,0,2014-01-02 19:58:00
12:58 PM,48.2,47.8,99,30.07,10.0,Variable,4.6,-,N/A,,Overcast,0,2014-01-02 20:58:00
1:58 PM,50.5,45.7,83,30.05,10.0,Variable,2.3,-,N/A,,Overcast,0,2014-01-02 21:58:00
2:58 PM,51.3,47.1,86,30.02,10.0,South,2.3,-,N/A,,Overcast,170,2014-01-02 22:58:00
3:58 PM,50.0,46.8,89,30.01,10.0,SSW,1.2,-,N/A,,Overcast,200,2014-01-02 23:58:00
4:58 PM,52.3,42.6,69,29.99,10.0,SW,13.8,18.4,N/A,,Overcast,220,2014-01-03 00:58:00
5:00 PM,51.8,42.8,71,29.96,10.0,SW,13.8,-,N/A,Rain,Light Rain,220,2014-01-03 01:00:00
5:14 PM,51.8,42.8,71,29.95,10.0,SSW,10.4,-,N/A,,Overcast,200,2014-01-03 01:14:00
5:18 PM,51.8,42.8,71,29.95,10.0,SSW,16.1,21.9,N/A,Rain,Light Rain,210,2014-01-03 01:18:00
5:42 PM,51.8,42.8,71,29.95,10.0,SSW,10.4,-,N/A,,Overcast,210,2014-01-03 01:42:00
5:53 PM,51.8,42.8,71,29.96,10.0,SW,9.2,-,N/A,Rain,Light Rain,230,2014-01-03 01:53:00
5:58 PM,51.3,43.5,75,29.98,10.0,SW,8.1,-,0.00,Rain,Light Rain,230,2014-01-03 01:58:00
6:58 PM,48.7,46.0,90,29.96,10.0,SSW,8.1,-,0.02,Rain,Light Rain,200,2014-01-03 02:58:00
7:43 PM,48.2,46.4,93,29.93,10.0,SSW,16.1,21.9,N/A,Rain,Light Rain,200,2014-01-03 03:43:00
7:58 PM,47.5,46.8,97,29.95,10.0,SSW,17.3,23.0,0.03,Rain,Light Rain,200,2014-01-03 03:58:00
8:15 PM,46.4,46.4,100,29.94,10.0,SSW,16.1,26.5,N/A,,Overcast,210,2014-01-03 04:15:00
8:24 PM,46.4,46.4,100,29.93,10.0,SSW,17.3,-,N/A,Rain,Light Rain,200,2014-01-03 04:24:00
8:54 PM,46.4,46.4,100,29.93,10.0,SSW,13.8,-,N/A,Rain,Light Rain,200,2014-01-03 04:54:00
8:58 PM,46.4,46.2,99,29.94,10.0,South,13.8,-,0.03,Rain,Light Rain,190,2014-01-03 04:58:00
9:43 PM,46.4,46.4,100,29.94,10.0,SSW,15.0,23.0,N/A,Rain,Light Rain,200,2014-01-03 05:43:00
9:48 PM,46.4,46.4,100,29.95,10.0,SSW,16.1,25.3,N/A,Rain,Light Rain,210,2014-01-03 05:48:00
9:53 PM,46.4,46.4,100,29.95,10.0,SSW,16.1,25.3,N/A,Rain,Light Rain,210,2014-01-03 05:53:00
9:58 PM,45.7,45.5,99,29.97,10.0,SSW,16.1,-,0.02,Rain,Light Rain,210,2014-01-03 05:58:00
10:46 PM,46.4,46.4,100,29.96,10.0,SSW,11.5,19.6,N/A,,Mostly Cloudy,200,2014-01-03 06:46:00
10:58 PM,45.9,45.7,99,30.00,10.0,SSW,9.2,20.7,0.02,,Mostly Cloudy,210,2014-01-03 06:58:00
11:58 PM,44.6,44.4,99,30.01,10.0,SW,15.0,-,N/A,,Clear,230,2014-01-03 07:58:00